time_stamp(utc),avg(mph),gust(mph),direction(deg),12m_air_temp(f),sonic_u(cm/s),sonic_v(cm/s),sonic_w(cm/s),pressure,2m_air_temp(f),pyranometer(W/m^2)
"2018-09-26 00:02:07+00",9.2,11.2,,73.6,10,-423,-8,1021.01,73.4,0
"2018-09-26 00:07:07+00",7.5,10.5,,73.6,-9,-316,-9,1021.15,73.4,0
"2018-09-26 00:12:07+00",9.4,12.4,,73.6,-15,-407,-17,1021.19,73.4,0
"2018-09-26 00:17:07+00",7.9,9.9,,73.6,-4,-331,-14,1021.21,73.4,0
"2018-09-26 00:22:07+00",9.3,11.3,,73.5,3,-393,-23,1021.28,73.3,0
"2018-09-26 00:27:07+00",7.3,10.3,,73.4,-10,-303,-2,1021.26,73.2,0
"2018-09-26 00:32:07+00",9.0,12.0,,73.5,-11,-369,-4,1021.17,73.2,0
"2018-09-26 00:37:07+00",9.2,11.2,,73.5,3,-385,-9,1021.12,73.3,0
"2018-09-26 00:42:07+00",10.1,12.1,,73.4,11,-417,-21,1021.08,73.1,0
"2018-09-26 00:47:07+00",8.3,10.3,,73.3,-10,-344,-2,1021.05,73.1,0
"2018-09-26 00:52:07+00",9.0,12.0,,73.3,5,-368,-7,1021.01,73.1,0
"2018-09-26 00:57:07+00",9.2,12.2,,73.4,-47,-381,-18,1020.9,73.1,0
"2018-09-26 01:02:07+00",8.3,10.3,,73.4,-7,-358,-18,1020.82,73.1,0
"2018-09-26 01:07:07+00",9.0,11.0,,73.3,-20,-376,-7,1020.83,73,0
"2018-09-26 01:12:07+00",9.5,12.5,,73.4,-34,-406,-26,1020.82,73.1,0
"2018-09-26 01:17:07+00",8.6,11.6,,73.4,-55,-357,2,1020.72,73.1,0
"2018-09-26 01:22:07+00",9.8,15.8,,73.4,87,-638,122,1020.59,73.1,0
"2018-09-26 01:27:07+00",11.0,15.0,,73.4,60,-593,60,1020.46,73.1,0
"2018-09-26 01:32:07+00",11.1,13.1,,73.3,-33,-486,-19,1020.5,73.1,0
"2018-09-26 01:37:07+00",12.3,15.3,,73.3,64,-770,123,1020.36,73,0
"2018-09-26 01:42:07+00",11.4,13.4,,73.4,-36,-497,-22,1020.34,73.1,0
"2018-09-26 01:47:07+00",9.9,12.9,,73.4,-38,-427,-19,1020.32,73.1,0
"2018-09-26 01:52:07+00",9.0,12.0,,73.4,-61,-369,-18,1020.38,73,0
"2018-09-26 01:57:07+00",11.3,15.3,,73.4,-16,-616,67,1020.44,73,0
"2018-09-26 02:02:07+00",10.0,13.0,,73.4,-81,-415,-5,1020.45,73.1,0
"2018-09-26 02:07:07+00",9.4,12.4,,73.4,-53,-390,-3,1020.31,73,0
"2018-09-26 02:12:07+00",9.2,12.2,,73.3,-54,-377,-13,1020.27,73,0
"2018-09-26 02:17:07+00",10.8,13.8,,73.3,-76,-457,-17,1020.22,73,0
"2018-09-26 02:22:07+00",10.2,12.2,,73.2,-95,-407,-10,1020.21,72.9,0
"2018-09-26 02:27:07+00",9.2,12.2,,73.2,-94,-372,-2,1020.18,72.9,0
"2018-09-26 02:32:07+00",8.0,11.0,,73.2,-86,-323,-13,1020.11,72.8,0
"2018-09-26 02:37:07+00",9.0,11.0,,73.1,-81,-374,-15,1020.05,72.8,0
"2018-09-26 02:42:07+00",10.1,13.1,,73.1,-71,-432,-6,1020,72.8,0
"2018-09-26 02:47:07+00",8.6,10.6,,73.1,-63,-356,-13,1019.97,72.8,0
"2018-09-26 02:52:07+00",9.1,12.1,,73.1,-57,-376,-25,1019.82,72.7,0
"2018-09-26 02:57:07+00",8.2,11.2,,73,-63,-348,5,1019.92,72.7,0
"2018-09-26 03:02:07+00",8.8,10.8,,73,-33,-375,-12,1019.87,72.7,0
"2018-09-26 03:07:07+00",8.7,10.7,,73,-78,-359,-4,1019.89,72.6,0
"2018-09-26 03:12:07+00",7.1,10.1,,72.9,-76,-290,6,1019.91,72.6,0
"2018-09-26 03:17:07+00",9.1,10.1,,72.9,-38,-377,-26,1019.74,72.6,0
"2018-09-26 03:22:07+00",8.9,11.9,,72.9,-56,-371,-15,1019.73,72.6,0
"2018-09-26 03:27:07+00",10.4,13.4,,72.8,-44,-432,-32,1019.7,72.6,0
"2018-09-26 03:32:07+00",9.3,12.3,,72.8,-18,-377,-20,1019.57,72.5,0
"2018-09-26 03:37:07+00",9.7,11.7,,72.8,-65,-410,-13,1019.47,72.5,0
"2018-09-26 03:42:07+00",8.0,10.0,,72.8,-51,-339,-15,1019.5,72.5,0
"2018-09-26 03:47:07+00",6.8,10.8,,72.7,-44,-279,-5,1019.43,72.4,0
"2018-09-26 03:52:07+00",8.4,10.4,,72.6,-23,-353,-7,1019.41,72.4,0
"2018-09-26 03:57:07+00",8.7,10.7,,72.6,-23,-372,-19,1019.48,72.3,0
"2018-09-26 04:02:07+00",6.9,8.9,,72.6,-21,-297,-10,1019.36,72.3,0
"2018-09-26 04:07:07+00",8.0,11.0,,72.6,-76,-324,1,1019.42,72.2,0
"2018-09-26 04:12:07+00",8.6,12.6,,72.7,-52,-356,-14,1019.37,72.3,0
"2018-09-26 04:17:07+00",8.9,10.9,,72.7,-84,-371,-19,1019.4,72.3,0
"2018-09-26 04:22:07+00",9.9,13.9,,72.9,-93,-408,-7,1019.38,72.4,0
"2018-09-26 04:27:07+00",9.4,14.4,,72.9,-54,-386,-1,1019.31,72.4,0
"2018-09-26 04:32:07+00",8.8,10.8,,72.8,-53,-361,-2,1019.34,72.5,0
"2018-09-26 04:37:07+00",9.5,12.5,,72.8,-48,-406,-12,1019.28,72.5,0
"2018-09-26 04:42:07+00",9.9,12.9,,72.9,-40,-410,-13,1019.19,72.5,0
"2018-09-26 04:47:07+00",9.8,12.8,,72.9,-23,-412,-16,1019.18,72.5,0
"2018-09-26 04:52:07+00",9.0,12.0,,72.9,-48,-384,-15,1019.33,72.6,0
"2018-09-26 04:57:07+00",9.0,12.0,,72.9,-56,-373,-13,1019.23,72.6,0
"2018-09-26 05:02:07+00",8.1,11.1,,72.9,-41,-338,-12,1019.29,72.6,0
"2018-09-26 05:07:07+00",9.3,11.3,,72.8,-79,-415,-18,1019.32,72.5,0
"2018-09-26 05:12:07+00",8.3,10.3,,72.8,-24,-361,-22,1019.25,72.5,0
"2018-09-26 05:17:07+00",7.9,8.9,,72.7,-13,-336,-7,1019.2,72.4,0
"2018-09-26 05:22:07+00",8.2,10.2,,72.6,-24,-336,-25,1019.11,72.4,0
"2018-09-26 05:27:07+00",8.3,9.3,,72.5,28,-363,-1,1019.09,72.3,0
"2018-09-26 05:32:07+00",8.9,10.9,,72.4,35,-377,-7,1019.1,72.2,0
"2018-09-26 05:37:07+00",7.6,9.6,,72.2,31,-322,-10,1019.1,72.1,0
"2018-09-26 05:42:07+00",8.1,11.1,,72.3,43,-331,-10,1019.1,72.1,0
"2018-09-26 05:47:07+00",6.8,8.8,,72.3,38,-281,1,1019.06,72.1,0
"2018-09-26 05:52:07+00",7.5,9.5,,72.3,-28,-320,-11,1019.03,72.1,0
"2018-09-26 05:57:07+00",7.1,9.1,,72.4,-26,-297,-18,1018.98,72.1,0
"2018-09-26 06:02:07+00",5.5,7.5,,72.3,-37,-221,-11,1018.9,72.1,0
"2018-09-26 06:07:07+00",5.7,6.7,,72.2,-54,-232,-2,1018.78,72.1,0
"2018-09-26 06:12:07+00",5.2,7.2,,72.2,-73,-210,-7,1018.75,72,0
"2018-09-26 06:17:07+00",6.0,7.0,,72.3,-194,-171,7,1018.66,72.1,0
"2018-09-26 06:22:07+00",6.2,7.2,,72.2,-197,-189,4,1018.6,72.1,0
"2018-09-26 06:27:07+00",5.1,6.1,,72.2,-119,-190,3,1018.56,72,0
"2018-09-26 06:32:07+00",5.4,6.4,,72.2,-91,-209,-4,1018.32,72,0
"2018-09-26 06:37:07+00",5.5,6.5,,72.2,-113,-208,4,1018.26,72,0
"2018-09-26 06:42:07+00",4.5,5.5,,72.2,-96,-165,3,1018.19,72,0
"2018-09-26 06:47:07+00",5.3,6.3,,72.2,-91,-206,-2,1018.29,72,0
"2018-09-26 06:52:07+00",4.5,6.5,,72.2,-38,-182,-11,1018.24,71.9,0
"2018-09-26 06:57:07+00",5.1,6.1,,72.1,-100,-192,-2,1018.16,71.8,0
"2018-09-26 07:02:07+00",4.6,5.6,,72.1,-83,-173,-2,1018.1,71.7,0
"2018-09-26 07:07:07+00",5.1,6.1,,72,-85,-200,0,1018.16,71.7,0
"2018-09-26 07:12:07+00",5.2,6.2,,72.1,-93,-200,3,1018.06,71.8,0
"2018-09-26 07:17:07+00",6.3,8.3,,72.1,-98,-254,2,1018.02,71.8,0
"2018-09-26 07:22:07+00",7.4,8.4,,72.2,-124,-291,-2,1017.9,71.8,0
"2018-09-26 07:27:07+00",7.5,8.5,,72.3,-124,-302,3,1017.92,71.9,0
"2018-09-26 07:32:07+00",7.7,9.7,,72.4,-162,-279,6,1017.84,72.1,0
"2018-09-26 07:37:07+00",7.3,9.3,,72.4,-146,-282,-2,1017.76,72,0
"2018-09-26 07:42:07+00",8.5,9.5,,72.4,-188,-323,-7,1017.64,72,0
"2018-09-26 07:47:07+00",8.0,10.0,,72.4,-190,-296,-5,1017.59,72,0
"2018-09-26 07:52:07+00",8.0,9.0,,72.3,-193,-298,-2,1017.56,72,0
"2018-09-26 07:57:07+00",8.1,10.1,,72.4,-217,-284,-1,1017.48,72,0
"2018-09-26 08:02:07+00",6.9,8.9,,72.4,-171,-255,1,1017.47,72,0
"2018-09-26 08:07:07+00",7.6,8.6,,72.4,-166,-289,2,1017.3,72,0
"2018-09-26 08:12:07+00",8.5,10.5,,72.4,-161,-327,-9,1017.26,72.1,0
"2018-09-26 08:17:07+00",8.5,9.5,,72.4,-185,-323,-1,1017.27,72.1,0
"2018-09-26 08:22:07+00",9.1,10.1,,72.5,-201,-350,4,1017.21,72.2,0
"2018-09-26 08:27:07+00",8.6,10.6,,72.6,-178,-326,1,1017.15,72.2,0
"2018-09-26 08:32:07+00",9.0,10.0,,72.6,-150,-352,-10,1017.06,72.2,0
"2018-09-26 08:37:07+00",7.8,9.8,,72.5,-139,-304,1,1016.99,72.2,0
"2018-09-26 08:42:07+00",8.9,10.9,,72.6,-204,-333,-9,1016.82,72.2,0
"2018-09-26 08:47:07+00",8.3,9.3,,72.6,-208,-304,6,1016.87,72.2,0
"2018-09-26 08:52:07+00",8.8,10.8,,72.7,-200,-329,-12,1016.92,72.2,0
"2018-09-26 08:57:07+00",8.0,9.0,,72.6,-162,-305,0,1016.91,72.2,0
"2018-09-26 09:02:07+00",9.0,11.0,,72.6,-200,-340,-6,1016.76,72.2,0
"2018-09-26 09:07:07+00",8.6,10.6,,72.7,-214,-321,3,1016.78,72.2,0
"2018-09-26 09:12:07+00",8.8,9.8,,72.7,-190,-335,-1,1016.82,72.3,0
"2018-09-26 09:17:07+00",8.9,10.9,,72.7,-158,-346,-6,1016.82,72.3,0
"2018-09-26 09:22:07+00",9.1,11.1,,72.8,-191,-351,3,1016.78,72.4,0
"2018-09-26 09:27:07+00",9.3,11.3,,72.9,-245,-339,-1,1016.76,72.4,0
"2018-09-26 09:32:07+00",9.1,11.1,,72.8,-188,-346,-3,1016.74,72.4,0
"2018-09-26 09:37:07+00",8.2,9.2,,72.8,-180,-313,8,1016.59,72.4,0
"2018-09-26 09:42:07+00",8.5,9.5,,72.9,-179,-327,1,1016.56,72.4,0
"2018-09-26 09:47:07+00",7.8,8.8,,72.9,-138,-302,1,1016.57,72.4,0
"2018-09-26 09:52:07+00",8.1,10.1,,72.9,-106,-330,-6,1016.55,72.5,0
"2018-09-26 09:57:07+00",8.6,10.6,,73,-117,-349,1,1016.49,72.6,0
"2018-09-26 10:02:07+00",8.8,10.8,,73.1,-116,-356,-3,1016.42,72.8,0
"2018-09-26 10:07:07+00",8.6,11.6,,73.2,-86,-350,4,1016.35,72.9,0
"2018-09-26 10:12:07+00",8.9,10.9,,73.2,-114,-361,10,1016.4,72.9,0
"2018-09-26 10:17:07+00",7.7,9.7,,73.2,-88,-318,8,1016.46,73,0
"2018-09-26 10:22:07+00",8.5,10.5,,73.2,-151,-326,-9,1016.51,72.9,0
"2018-09-26 10:27:07+00",7.4,9.4,,73.1,-111,-290,-1,1016.63,72.9,0
"2018-09-26 10:32:07+00",9.2,10.2,,73.1,-189,-350,-2,1016.67,72.9,0
"2018-09-26 10:37:07+00",7.7,9.7,,73,-150,-300,8,1016.63,72.8,0
"2018-09-26 10:42:07+00",5.8,7.8,,72.9,-62,-229,5,1016.65,72.8,0
"2018-09-26 10:47:07+00",7.5,10.5,,72.9,111,-650,207,1016.56,72.8,0
"2018-09-26 10:52:07+00",7.5,9.5,,72.9,37,-502,114,1016.56,72.8,0
"2018-09-26 10:57:07+00",7.3,10.3,,73,-79,-320,10,1016.62,72.8,0
"2018-09-26 11:02:07+00",7.4,8.4,,73.1,32,-476,92,1016.64,72.9,0
"2018-09-26 11:07:07+00",7.2,9.2,,73.1,-57,-298,-14,1016.7,73,0
"2018-09-26 11:12:07+00",7.3,10.3,,73,-85,-302,-2,1016.66,73,0
"2018-09-26 11:17:07+00",10.1,12.1,,73,-93,-412,-13,1016.67,72.9,0
"2018-09-26 11:22:07+00",9.2,11.2,,73,-138,-365,-3,1016.66,72.9,0
"2018-09-26 11:27:07+00",10.1,12.1,,73.1,-191,-396,-14,1016.68,73,0
"2018-09-26 11:32:07+00",7.5,8.5,,73.1,-172,-280,10,1016.72,73,0
"2018-09-26 11:37:07+00",6.2,7.2,,73.1,-137,-233,9,1016.72,73,0
"2018-09-26 11:42:07+00",5.6,7.6,,73,-107,-218,1,1016.76,73,0
"2018-09-26 11:47:07+00",7.3,10.3,,72.8,-62,-297,-10,1016.73,72.8,0
"2018-09-26 11:52:07+00",6.3,8.3,,72.6,-88,-259,7,1016.8,72.7,0.8
"2018-09-26 11:57:07+00",8.1,9.1,,72.6,-156,-312,0,1016.82,72.6,7
"2018-09-26 12:02:07+00",6.9,8.9,,72.7,-150,-269,10,1016.89,72.7,12.1
"2018-09-26 12:07:07+00",7.4,9.4,,72.8,-145,-286,8,1016.87,72.8,15.1
"2018-09-26 12:12:07+00",8.3,9.3,,72.9,-127,-331,-1,1016.95,72.8,12.7
"2018-09-26 12:17:07+00",8.3,9.3,,72.9,-151,-318,-4,1016.88,72.9,19.7
"2018-09-26 12:22:07+00",8.1,10.1,,73.1,-125,-325,-4,1016.84,73,10
"2018-09-26 12:27:07+00",7.6,9.6,,73.3,-91,-300,3,1016.8,73.2,33
"2018-09-26 12:32:07+00",7.5,8.5,,73.3,-122,-296,-20,1016.74,73.3,41.1
"2018-09-26 12:37:07+00",5.8,7.8,,73.5,-68,-227,4,1016.74,73.5,32.4
"2018-09-26 12:42:07+00",7.0,8.0,,73.5,-95,-284,0,1016.76,73.6,37.3
"2018-09-26 12:47:07+00",5.5,7.5,,73.7,-62,-217,13,1016.72,73.7,34.4
"2018-09-26 12:52:07+00",9.0,11.0,,73.7,-97,-367,6,1016.79,73.7,43.7
"2018-09-26 12:57:07+00",8.0,10.0,,73.8,-87,-330,-6,1016.8,73.8,23.4
"2018-09-26 13:02:07+00",7.7,10.7,,73.7,-110,-311,2,1016.86,73.8,35.9
"2018-09-26 13:07:07+00",8.4,11.4,,73.7,-150,-325,-1,1016.78,73.8,80.8
"2018-09-26 13:12:07+00",9.2,10.2,,73.9,-178,-364,-3,1016.82,74.4,165.7
"2018-09-26 13:17:07+00",8.4,10.4,,74,-192,-318,9,1016.8,74.5,75.5
"2018-09-26 13:22:07+00",8.6,9.6,,74.1,-183,-325,0,1016.72,74.7,65.3
"2018-09-26 13:27:07+00",9.8,10.8,,74.2,-163,-385,-10,1016.69,74.7,62.2
"2018-09-26 13:32:07+00",7.9,8.9,,74.4,-155,-304,3,1016.71,75,93.3
"2018-09-26 13:37:07+00",8.7,10.7,,74.5,-149,-345,-1,1016.77,74.9,24.2
"2018-09-26 13:42:07+00",9.1,11.1,,74.5,-124,-376,6,1016.76,74.9,34.8
"2018-09-26 13:47:07+00",9.3,11.3,,74.5,-120,-375,-2,1016.64,75,143
"2018-09-26 13:52:07+00",10.1,11.1,,74.5,-235,-377,-12,1016.61,75.2,264.6
"2018-09-26 13:57:07+00",9.8,11.8,,74.7,-166,-386,-7,1016.55,75.8,264.8
"2018-09-26 14:02:07+00",11.6,12.6,,74.9,-226,-442,-9,1016.38,75.9,77.2
"2018-09-26 14:07:07+00",11.3,12.3,,74.8,-254,-428,2,1016.42,75.7,65
"2018-09-26 14:12:07+00",10.2,11.2,,74.8,-277,-376,9,1016.47,75.6,129.7
"2018-09-26 14:17:07+00",9.9,11.9,,74.8,-252,-366,5,1016.4,75.8,207
"2018-09-26 14:22:07+00",10.5,12.5,,74.9,-319,-350,7,1016.49,76.4,186.2
"2018-09-26 14:27:07+00",10.8,11.8,,75.1,-319,-376,16,1016.44,76.5,168.4
"2018-09-26 14:32:07+00",11.2,13.2,,75,-316,-398,11,1016.52,76.3,84.3
"2018-09-26 14:37:07+00",11.0,14.0,,74.9,-363,-335,32,1016.49,76.2,79.6
"2018-09-26 14:42:07+00",10.6,12.6,,74.8,-368,-284,42,1016.52,76,49.5
"2018-09-26 14:47:07+00",11.0,13.0,,74.7,-350,-331,14,1016.47,75.8,42
"2018-09-26 14:52:07+00",9.5,11.5,,74.3,-231,-359,6,1016.47,75.3,50.7
"2018-09-26 14:57:07+00",8.3,10.3,,74.2,-229,-300,9,1016.49,75.1,88.6
"2018-09-26 15:02:07+00",8.2,10.2,,74.2,-233,-278,20,1016.47,75.3,175.2
"2018-09-26 15:07:07+00",8.1,9.1,,74.4,-239,-278,-8,1016.37,75.6,170.8
"2018-09-26 15:12:07+00",8.2,10.2,,74.8,-245,-278,13,1016.32,76.1,130.1
"2018-09-26 15:17:07+00",8.6,10.6,,75,-150,-333,3,1016.3,76.3,89.7
"2018-09-26 15:22:07+00",9.6,11.6,,75.2,-199,-370,-3,1016.35,76.4,289.8
"2018-09-26 15:27:07+00",11.6,14.6,,75.6,-207,-451,-16,1016.21,77,306.3
"2018-09-26 15:32:07+00",11.5,14.5,,75.9,-180,-457,1,1016.18,77.3,406.6
"2018-09-26 15:37:07+00",10.4,14.4,,76.3,-195,-394,9,1016.1,77.9,409.3
"2018-09-26 15:42:07+00",13.6,15.6,,76.3,-256,-530,-24,1016,78,422.8
"2018-09-26 15:47:07+00",11.1,15.1,,76.6,-127,-451,0,1016.09,78.4,346.5
"2018-09-26 15:52:07+00",9.7,14.7,,76.6,-113,-395,13,1015.99,78.1,417
"2018-09-26 15:57:07+00",12.5,16.5,,77,-118,-515,-1,1015.93,78.6,371.2
"2018-09-26 16:02:07+00",14.3,17.3,,76.9,-154,-595,-15,1015.84,78.6,433.5
"2018-09-26 16:07:07+00",14.7,17.7,,76.9,-162,-613,-10,1015.88,78.8,442.2
"2018-09-26 16:12:07+00",10.6,14.6,,77.2,26,-440,-3,1015.77,78.8,251
"2018-09-26 16:17:07+00",12.2,16.2,,76.4,-1,-514,-12,1015.73,78.2,444.5
"2018-09-26 16:22:07+00",11.6,15.6,,76.8,-78,-486,11,1015.71,78.4,423.8
"2018-09-26 16:27:07+00",16.8,19.8,,76.7,-151,-705,-26,1015.69,78.5,375.8
"2018-09-26 16:32:07+00",15.4,18.4,,77,-205,-630,-17,1015.59,78.8,424.2
"2018-09-26 16:37:07+00",12.1,15.1,,77.6,-100,-507,3,1015.64,79.4,399.2
"2018-09-26 16:42:07+00",12.8,17.8,,77.3,-133,-539,2,1015.56,79.2,419.2
"2018-09-26 16:47:07+00",16.1,18.1,,77.3,-268,-647,-5,1015.52,79.2,420.8
"2018-09-26 16:52:07+00",14.2,17.2,,77.4,-179,-583,-20,1015.38,79.3,419.1
"2018-09-26 16:57:07+00",10.8,13.8,,77.9,-97,-446,24,1015.34,79.6,420
"2018-09-26 17:02:07+00",11.8,16.8,,77,-62,-478,-2,1015.29,78.8,413.8
"2018-09-26 17:07:07+00",11.1,15.1,,77.1,-46,-459,-5,1015.16,78.7,414
"2018-09-26 17:12:07+00",14.9,18.9,,76.4,49,-632,-36,1015.07,78.2,411
"2018-09-26 17:17:07+00",13.1,18.1,,75.9,34,-557,-25,1015.04,77.5,411.8
"2018-09-26 17:22:07+00",14.9,16.9,,75.3,74,-643,-20,1014.94,77,286.9
"2018-09-26 17:27:07+00",13.9,18.9,,76,-38,-579,-8,1014.87,77.5,357.3
"2018-09-26 17:32:07+00",14.6,19.6,,76,-66,-607,1,1014.71,77.3,405.6
"2018-09-26 17:37:07+00",12.8,15.8,,76,-126,-541,-7,1014.68,77.4,317.2
"2018-09-26 17:42:07+00",16.6,19.6,,75.7,-160,-686,-23,1014.47,77.5,403.5
"2018-09-26 17:47:07+00",11.1,15.1,,76,-117,-466,26,1014.52,77.7,348
"2018-09-26 17:52:07+00",15.8,19.8,,75.9,-264,-629,-18,1014.49,77.9,367.7
"2018-09-26 17:57:07+00",14.7,17.7,,75.4,-241,-580,-11,1014.46,77.5,329.5
"2018-09-26 18:02:07+00",15.1,19.1,,75.6,-244,-603,-14,1014.29,77.6,326.9
"2018-09-26 18:07:07+00",13.8,16.8,,75.8,-274,-536,19,1014.24,77.7,340.4
"2018-09-26 18:12:07+00",13.9,16.9,,75.7,-328,-519,-3,1014.13,77.9,281.1
"2018-09-26 18:17:07+00",14.0,16.0,,75.8,-245,-547,-16,1013.93,78,380.9
"2018-09-26 18:22:07+00",14.9,17.9,,76.1,-252,-589,-9,1013.71,78.5,365.7
"2018-09-26 18:27:07+00",14.2,17.2,,76.4,-247,-562,-16,1013.54,78.4,362.2
"2018-09-26 18:32:07+00",9.0,13.0,,77.4,-131,-373,33,1013.52,79.1,353.3
"2018-09-26 18:37:07+00",11.8,14.8,,77.4,-194,-478,-6,1013.47,79.4,347.1
"2018-09-26 18:42:07+00",11.7,15.7,,77.3,-142,-483,-7,1013.35,79.3,343.5
"2018-09-26 18:47:07+00",13.1,16.1,,77,-50,-547,-15,1013.33,78.5,336
"2018-09-26 18:52:07+00",9.5,12.5,,76.8,-63,-388,25,1013.39,78.3,329.7
"2018-09-26 18:57:07+00",14.6,16.6,,76.4,-169,-605,-27,1013.38,78.1,325.6
"2018-09-26 19:02:07+00",13.1,18.1,,75.7,-29,-552,-10,1013.32,77.4,305.7
"2018-09-26 19:07:07+00",13.7,17.7,,75.4,-36,-564,-32,1013.31,76.9,280.8
"2018-09-26 19:12:07+00",11.5,15.5,,75.5,-62,-482,3,1013.27,77,244
"2018-09-26 19:17:07+00",12.1,17.1,,76.2,-147,-498,22,1013.22,77.6,300.2
"2018-09-26 19:22:07+00",14.6,18.6,,76.8,-144,-609,-29,1013.17,78.1,294.8
"2018-09-26 19:27:07+00",16.2,19.2,,76.8,-295,-640,-7,1013.18,78.5,286.2
"2018-09-26 19:32:07+00",13.9,16.9,,76.7,-245,-548,-4,1013.21,78.5,277.5
"2018-09-26 19:37:07+00",10.0,13.0,,77.3,-152,-408,26,1013.31,78.8,276.3
"2018-09-26 19:42:07+00",8.3,12.3,,76.7,-93,-339,24,1013.35,78.1,139.5
"2018-09-26 19:47:07+00",10.4,14.4,,76.7,-104,-430,19,1013.32,78,268.7
"2018-09-26 19:52:07+00",11.3,16.3,,76.8,-122,-469,12,1013.23,78.1,250.4
"2018-09-26 19:57:07+00",13.0,17.0,,76.7,-96,-548,-34,1012.98,78,246.3
"2018-09-26 20:02:07+00",10.5,13.5,,76.5,-54,-450,5,1012.93,77.8,236.6
"2018-09-26 20:07:07+00",11.6,14.6,,75.9,-12,-490,-12,1012.8,77,214.2
"2018-09-26 20:12:07+00",12.2,16.2,,75.2,-12,-513,-17,1012.79,76.4,209.8
"2018-09-26 20:17:07+00",12.8,16.8,,74.9,-39,-549,-24,1012.94,76,81.5
"2018-09-26 20:22:07+00",10.7,14.7,,74.3,-32,-450,2,1012.94,75.4,86.6
"2018-09-26 20:27:07+00",12.9,16.9,,73.7,-71,-538,-2,1012.91,74.7,45.7
"2018-09-26 20:32:07+00",12.6,17.6,,73.6,-142,-524,22,1012.97,74.4,64.1
"2018-09-26 20:37:07+00",16.1,18.1,,73.6,-141,-667,-20,1012.89,74.3,75
"2018-09-26 20:42:07+00",14.0,16.0,,73.6,-205,-569,2,1012.76,74.3,42.5
"2018-09-26 20:47:07+00",13.7,16.7,,73.6,-144,-568,-9,1012.56,74.3,70.7
"2018-09-26 20:52:07+00",11.3,17.3,,73.7,-103,-472,13,1012.44,74.4,87.8
"2018-09-26 20:57:07+00",14.6,18.6,,73.8,-182,-604,-18,1012.49,74.5,83.5
"2018-09-26 21:02:07+00",14.9,16.9,,73.7,-158,-615,-27,1012.58,74.5,58.3
"2018-09-26 21:07:07+00",13.0,17.0,,73.7,-184,-525,12,1012.39,74.4,41.2
"2018-09-26 21:12:07+00",15.6,20.6,,73.3,-153,-654,-18,1012.31,74.1,31.7
"2018-09-26 21:17:07+00",13.7,18.7,,73.2,-159,-562,6,1012.24,73.8,24.3
"2018-09-26 21:22:07+00",11.9,16.9,,73.3,-147,-479,2,1012.26,73.8,18
"2018-09-26 21:27:07+00",16.1,20.1,,73.5,-235,-655,-14,1012.14,74,15
"2018-09-26 21:32:07+00",12.9,14.9,,73.9,-181,-522,5,1012.1,74.3,23.8
"2018-09-26 21:37:07+00",12.7,16.7,,74.3,-198,-511,-1,1012.14,74.7,50.1
"2018-09-26 21:42:07+00",11.3,14.3,,74.9,-165,-450,10,1012.13,75.3,68.7
"2018-09-26 21:47:07+00",12.9,15.9,,75.2,-183,-513,-12,1012.13,75.7,58.1
"2018-09-26 21:52:07+00",9.9,13.9,,75.2,-85,-406,0,1012.07,75.7,28.1
"2018-09-26 21:57:07+00",10.5,13.5,,75,-135,-426,-1,1012.16,75.5,31.1
"2018-09-26 22:02:07+00",14.2,16.2,,74.7,-261,-562,-9,1012.21,75.2,19
"2018-09-26 22:07:07+00",11.4,13.4,,74.8,-154,-469,6,1012.31,75.2,19.4
"2018-09-26 22:12:07+00",10.2,13.2,,74.9,-123,-413,-5,1012.32,75.3,11.3
"2018-09-26 22:17:07+00",13.1,17.1,,74.8,-170,-540,-17,1012.33,75.2,5.4
"2018-09-26 22:22:07+00",10.7,14.7,,74.9,-129,-442,1,1012.36,75.2,0.3
"2018-09-26 22:27:07+00",9.7,13.7,,74.6,-80,-396,14,1012.27,74.9,0
"2018-09-26 22:32:07+00",9.8,13.8,,74.3,-88,-409,-7,1012.24,74.5,0
"2018-09-26 22:37:07+00",12.3,14.3,,74.2,-136,-507,-4,1012.38,74.3,0
"2018-09-26 22:42:07+00",11.6,15.6,,74,-125,-485,-7,1012.36,74.1,0
"2018-09-26 22:47:07+00",10.8,14.8,,74,-82,-449,6,1012.33,74,0
"2018-09-26 22:52:07+00",12.3,15.3,,73.9,-103,-504,-19,1012.32,73.9,0
"2018-09-26 22:57:07+00",10.4,12.4,,73.9,-86,-439,-26,1012.28,73.8,0
"2018-09-26 23:02:07+00",8.6,11.6,,73.8,-73,-355,-2,1012.31,73.7,0
"2018-09-26 23:07:07+00",8.2,10.2,,73.7,-80,-340,5,1012.18,73.6,0
"2018-09-26 23:12:07+00",13.0,18.0,,73.7,-120,-540,-11,1012.12,73.6,0
"2018-09-26 23:17:07+00",10.1,12.1,,73.8,-121,-415,-7,1012.22,73.6,0
"2018-09-26 23:22:07+00",11.4,14.4,,73.8,-129,-464,-3,1012.24,73.6,0
"2018-09-26 23:27:07+00",10.1,12.1,,73.8,-135,-407,14,1012.14,73.7,0
"2018-09-26 23:32:07+00",11.9,14.9,,73.9,-222,-469,-17,1012.23,73.7,0
"2018-09-26 23:37:07+00",11.6,13.6,,73.9,-169,-472,-6,1012.39,73.7,0
"2018-09-26 23:42:07+00",10.4,15.4,,74,-128,-412,4,1012.44,73.7,0
"2018-09-26 23:47:07+00",10.6,13.6,,74,-128,-436,-1,1012.49,73.8,0
"2018-09-26 23:52:07+00",9.0,12.0,,74,-107,-370,2,1012.47,73.8,0
"2018-09-26 23:57:07+00",11.4,15.4,,74,-179,-461,2,1012.55,73.8,0
